sat.trackr.live / text

‹ back to catalog

YAOGAN-31 03B

NORAD 47693 · 2021-014C

PAYLOAD ACTIVE UNKNOWN

§ Identity

Operator
Country
PRC
Launch date
2021-02-24
Launch site
JSC
Launch vehicle
Mass (kg)
RCS (m²)

External: N2YO · Heavens-Above · Gunter

§ Orbital elements

Epoch: 2026-09-20T21:30:01.903104Z

Period
107.03 min
Inclination
63.4027°
Eccentricity
0.0185533
Mean motion
13.45453803 rev/d
Perigee alt
950.5 km
Apogee alt
1,227.6 km
Semi-major
7,467.2 km
B*
1.2660e-5
RAAN
312.6552°
Arg perigee
1.2999°
Mean anomaly
358.8472°
Rev number
27,355

§ Raw data

YAOGAN-31 03B1 47693U 21014C   26263.89585536 -.00000082  00000+0  12660-4 0  99942 47693  63.4027 312.6552 0185533   1.2999 358.8472 13.45453803273557

JSON: /api/v1/satellites/47693 · /tle

For live sub-satellite position, see the globe view (requires WebGL).

§ Visibility from observer

Set your observer location to see the next 7 days of passes ≥ 10°. The values pass through the URL so the page stays shareable.

No JS? Fill the form by hand. The geolocation button needs JavaScript.